Terminal Aerodrome Forecast
Issued by NWS

Home | Current Version | Previous Version | Text Only | Print | Product List | Glossary Off
Versions: 1 2 3 4 5 6 7 8 9 10 11 12 13 14 15 16 17 18 19 20 21 22 23 24 25 26 27 28 29 30 31 32 33 34 35 36 37 38 39 40 41 42 43
000 FTUS43 KABR 242338 AAP TAFPIR TAF AMD KPIR 242338Z 2500/2524 30018G24KT 1SM -SN OVC010 FM250030 31010KT P6SM BKN070 FM250300 VRB05KT P6SM SKC FM251100 25008KT P6SM SKC FM251900 23018G25KT P6SM SKC=

USA.gov is the U.S. government's official web portal to all federal, state and local government web resources and services.